EJA565 MYNN-KIAD

Flight info

Callsign EJA565
Flight time N/A
Altitude 39000
Route INGRA G437 ELBOW DCT JAZZI DCT GARIC Q129 YERBA DCT MAYKR DCT TRSSK CAVLR6
Aircraft CL60/M-SBDE1E2E3FGHIJ4J5J7M3RWXYLB1V1D1/HB1D1

Departure

Time N/A
Airport Lynden Pindling International Airport (MYNN)

Arrival

Time 2026-05-03 20:45
Airport Washington Dulles International Airport (KIAD)
Time Latitude Longitude Altitude Speed Heading
2026-05-03 20:15 36.33246 -77.85312 39074 ft 488 kts 352°
2026-05-03 20:15 36.39820 -77.84813 39071 ft 488 kts 352°
2026-05-03 20:16 36.45986 -77.84347 39081 ft 487 kts 352°
2026-05-03 20:16 36.51837 -77.84191 39076 ft 483 kts 349°
2026-05-03 20:17 36.58579 -77.84096 39076 ft 483 kts 349°
2026-05-03 20:17 36.65348 -77.83997 39096 ft 482 kts 350°
2026-05-03 20:18 36.71994 -77.83900 39074 ft 481 kts 350°
2026-05-03 20:18 36.78664 -77.83796 38749 ft 474 kts 349°
2026-05-03 20:18 36.81550 -77.83750 38268 ft 470 kts 349°
2026-05-03 20:19 36.84880 -77.83697 37675 ft 465 kts 349°
2026-05-03 20:19 36.88137 -77.83647 37079 ft 461 kts 349°
2026-05-03 20:19 36.91357 -77.83598 36456 ft 458 kts 349°
2026-05-03 20:19 36.94535 -77.83548 35869 ft 454 kts 349°
2026-05-03 20:20 36.97644 -77.83500 35325 ft 452 kts 349°
2026-05-03 20:20 37.00806 -77.83455 34661 ft 453 kts 349°
2026-05-03 20:20 37.03965 -77.83408 34001 ft 452 kts 349°
2026-05-03 20:20 37.07073 -77.83359 33451 ft 444 kts 349°
2026-05-03 20:21 37.10084 -77.83308 32866 ft 438 kts 349°
2026-05-03 20:21 37.13189 -77.83258 32289 ft 431 kts 349°
2026-05-03 20:21 37.16137 -77.83211 31730 ft 425 kts 349°
2026-05-03 20:21 37.19117 -77.83163 31156 ft 420 kts 349°
2026-05-03 20:22 37.21995 -77.83118 30610 ft 413 kts 349°
2026-05-03 20:22 37.24868 -77.83072 30064 ft 407 kts 349°
2026-05-03 20:22 37.27670 -77.83029 29515 ft 401 kts 349°
2026-05-03 20:22 37.30457 -77.82986 28994 ft 395 kts 350°
2026-05-03 20:23 37.32572 -77.82946 28606 ft 389 kts 350°
2026-05-03 20:23 37.35292 -77.82903 28082 ft 384 kts 350°
2026-05-03 20:23 37.37965 -77.82864 27560 ft 379 kts 350°
2026-05-03 20:23 37.40581 -77.82826 27054 ft 373 kts 351°
2026-05-03 20:24 37.43171 -77.82787 26584 ft 366 kts 350°
2026-05-03 20:24 37.45722 -77.82749 26089 ft 362 kts 351°
2026-05-03 20:24 37.47898 -77.82717 25661 ft 358 kts 351°
2026-05-03 20:24 37.50221 -77.82683 25208 ft 353 kts 351°
2026-05-03 20:25 37.52623 -77.82648 24763 ft 348 kts 351°
2026-05-03 20:25 37.54702 -77.82616 24360 ft 344 kts 351°
2026-05-03 20:25 37.57101 -77.82581 23920 ft 339 kts 351°
2026-05-03 20:25 37.59456 -77.82546 23443 ft 335 kts 351°
2026-05-03 20:26 37.61746 -77.82512 23022 ft 329 kts 352°
2026-05-03 20:26 37.64029 -77.82465 22586 ft 325 kts 354°
2026-05-03 20:26 37.66283 -77.81926 22156 ft 335 kts 10°
2026-05-03 20:26 37.68423 -77.80790 21697 ft 336 kts 14°
2026-05-03 20:27 37.70566 -77.79594 21233 ft 332 kts 14°
2026-05-03 20:27 37.72681 -77.78419 20794 ft 333 kts 14°
2026-05-03 20:27 37.74790 -77.77251 20364 ft 332 kts 14°
2026-05-03 20:27 37.76918 -77.76070 19916 ft 331 kts 15°
2026-05-03 20:28 37.79013 -77.74906 19481 ft 330 kts 15°
2026-05-03 20:28 37.81110 -77.73740 19037 ft 328 kts 15°
2026-05-03 20:28 37.83198 -77.72580 18521 ft 328 kts 15°
2026-05-03 20:28 37.85277 -77.71422 18130 ft 323 kts 15°
2026-05-03 20:29 37.87363 -77.70261 17678 ft 323 kts 15°
2026-05-03 20:29 37.89398 -77.69128 17262 ft 321 kts 16°
2026-05-03 20:29 37.91451 -77.67982 16821 ft 320 kts 16°
2026-05-03 20:29 37.93485 -77.66847 16413 ft 318 kts 16°
2026-05-03 20:30 37.95507 -77.65718 15981 ft 317 kts 16°
2026-05-03 20:30 37.97519 -77.64594 15563 ft 315 kts 16°
2026-05-03 20:30 37.99514 -77.63479 15150 ft 313 kts 17°
2026-05-03 20:30 38.01517 -77.62358 14729 ft 311 kts 17°
2026-05-03 20:31 38.03481 -77.61259 14324 ft 309 kts 17°
2026-05-03 20:31 38.05434 -77.60139 13910 ft 309 kts 18°
2026-05-03 20:31 38.07368 -77.58925 13503 ft 307 kts 20°
2026-05-03 20:31 38.09290 -77.57707 13095 ft 304 kts 20°
2026-05-03 20:32 38.11156 -77.56524 12694 ft 301 kts 20°
2026-05-03 20:32 38.13033 -77.55334 12296 ft 298 kts 20°
2026-05-03 20:32 38.14870 -77.54167 11902 ft 295 kts 20°
2026-05-03 20:32 38.16712 -77.52996 11512 ft 292 kts 20°
2026-05-03 20:33 38.18530 -77.51836 11121 ft 290 kts 20°
2026-05-03 20:33 38.20324 -77.50690 10741 ft 288 kts 20°
2026-05-03 20:33 38.21713 -77.49802 10452 ft 285 kts 20°
2026-05-03 20:33 38.23313 -77.48781 10127 ft 283 kts 20°
2026-05-03 20:34 38.25124 -77.47903 9737 ft 276 kts 10°
2026-05-03 20:34 38.26987 -77.47259 9381 ft 273 kts 10°
2026-05-03 20:34 38.28570 -77.46709 9073 ft 272 kts 10°
2026-05-03 20:34 38.29667 -77.46329 8869 ft 272 kts
2026-05-03 20:35 38.31496 -77.46022 8727 ft 263 kts 359°
2026-05-03 20:35 38.33351 -77.45884 8678 ft 271 kts 359°
2026-05-03 20:35 38.35231 -77.45740 8526 ft 268 kts 359°
2026-05-03 20:35 38.37126 -77.45586 8395 ft 269 kts 359°
2026-05-03 20:36 38.38827 -77.45428 8272 ft 268 kts
2026-05-03 20:36 38.40725 -77.45239 8134 ft 268 kts
2026-05-03 20:36 38.42578 -77.45052 7998 ft 268 kts
2026-05-03 20:36 38.44464 -77.44859 7860 ft 268 kts
2026-05-03 20:37 38.46315 -77.44669 7725 ft 267 kts
2026-05-03 20:37 38.48194 -77.44475 7587 ft 267 kts
2026-05-03 20:37 38.50060 -77.44296 7450 ft 266 kts 359°
2026-05-03 20:37 38.51883 -77.44252 7317 ft 266 kts 357°
2026-05-03 20:38 38.52761 -77.44242 7253 ft 266 kts 357°
2026-05-03 20:38 38.54700 -77.44218 7115 ft 266 kts 357°
2026-05-03 20:38 38.56592 -77.44192 6973 ft 266 kts 357°
2026-05-03 20:38 38.58439 -77.44167 6795 ft 267 kts 357°
2026-05-03 20:39 38.60324 -77.44141 6427 ft 268 kts 357°
2026-05-03 20:39 38.62195 -77.44115 5941 ft 269 kts 357°
2026-05-03 20:39 38.64064 -77.44083 5575 ft 263 kts 358°
2026-05-03 20:39 38.65890 -77.44045 5272 ft 255 kts 358°
2026-05-03 20:40 38.67638 -77.44016 5030 ft 246 kts 358°
2026-05-03 20:40 38.69326 -77.43989 4711 ft 241 kts 357°
2026-05-03 20:40 38.71001 -77.43964 4410 ft 236 kts 357°
2026-05-03 20:40 38.72647 -77.43938 4098 ft 231 kts 357°
2026-05-03 20:41 38.74233 -77.43916 3804 ft 227 kts 357°
2026-05-03 20:41 38.75817 -77.43892 3499 ft 223 kts 357°
2026-05-03 20:41 38.77364 -77.43868 3210 ft 217 kts 357°
2026-05-03 20:41 38.78871 -77.43845 2937 ft 211 kts 357°
2026-05-03 20:42 38.80274 -77.43821 2639 ft 188 kts 356°
2026-05-03 20:42 38.81503 -77.43801 2429 ft 168 kts 356°
2026-05-03 20:42 38.82624 -77.43783 2220 ft 149 kts 355°
2026-05-03 20:42 38.83624 -77.43767 2044 ft 141 kts 354°
2026-05-03 20:43 38.84609 -77.43759 1840 ft 141 kts 355°
2026-05-03 20:43 38.85594 -77.43746 1683 ft 136 kts 356°
2026-05-03 20:43 38.86524 -77.43730 1493 ft 132 kts 356°
2026-05-03 20:43 38.87436 -77.43716 1307 ft 129 kts 355°
2026-05-03 20:44 38.88331 -77.43703 1134 ft 129 kts 356°
2026-05-03 20:44 38.89230 -77.43684 972 ft 124 kts 354°
2026-05-03 20:44 38.90100 -77.43671 812 ft 127 kts 355°
2026-05-03 20:44 38.91003 -77.43665 644 ft 131 kts 354°
2026-05-03 20:45 38.91906 -77.43654 458 ft 129 kts 356°
2026-05-03 20:45 38.92798 -77.43638 322 ft 122 kts 356°
2026-05-03 20:45 38.93504 -77.43627 320 ft 74 kts 359°
2026-05-03 20:45 38.93868 -77.43644 319 ft 32 kts 347°
2026-05-03 20:46 38.94040 -77.43735 319 ft 26 kts 328°
2026-05-03 20:46 38.94206 -77.43841 319 ft 27 kts 343°
2026-05-03 20:46 38.94398 -77.43861 319 ft 28 kts
2026-05-03 20:46 38.94604 -77.43858 319 ft 30 kts 359°
2026-05-03 20:47 38.94816 -77.43855 319 ft 27 kts
2026-05-03 20:47 38.94997 -77.43851 319 ft 26 kts
2026-05-03 20:47 38.95177 -77.43849 319 ft 21 kts
2026-05-03 20:47 38.95315 -77.43847 319 ft 10 kts
2026-05-03 20:48 38.95352 -77.43902 319 ft 11 kts 270°
2026-05-03 20:48 38.95353 -77.44012 319 ft 10 kts 270°
2026-05-03 20:48 38.95371 -77.44071 319 ft 8 kts 354°
2026-05-03 20:48 38.95430 -77.44086 319 ft 8 kts 282°
2026-05-03 20:49 38.95402 -77.44115 319 ft 6 kts 195°
2026-05-03 20:49 38.95373 -77.44122 319 ft 0 kts 179°
2026-05-03 20:49 38.95372 -77.44122 319 ft 0 kts 179°